Location: Holkham
(52.9500°N, 0.8167°E)
Time: 12:50:47
(UTC+00:00)

Cosmos 1833 Rocket - Pass Details

Date: 19 May 2025
Orbit: 831 x 839 km, 71.0° (Epoch: 11 June)

Event Time Altitude Azimuth Distance (km) Brightness Sun altitude
Rises 22:05:59 0° 226° (SW) 3,383 5.7 -13.5°
Reaches altitude 10° 22:08:28 10° 231° (SW) 2,453 5.0 -13.6°
Maximum altitude 22:13:59 54° 308° (NW) 1,014 3.5 -14.0°
Drops below altitude 10° 22:19:32 10° 26° (NNE) 2,466 5.7 -14.3°
Sets 22:22:03 0° 32° (NNE) 3,403 6.4 -14.4°
